Weather History for Brandon, MB

Change the Weather History Date:

Wednesday, September 4, 2013

  Actual Average Record
Temperature  
Mean Temperature 56 °F -  
Max Temperature 68 °F 69 °F 89 °F (1998)
Min Temperature 43 °F 47 °F 37 °F (1996)
Degree Days  
Heating Degree Days 10    
Growing Degree Days 6 (Base 50)    
Moisture  
Dew Point 45 °F    
Average Humidity 67    
Maximum Humidity 93    
Minimum Humidity 37    
Precipitation  
Precipitation 0.00 in - - ()
Sea Level Pressure  
Sea Level Pressure 30.23 in    
Wind  
Wind Speed 5 mph ()    
Max Wind Speed 8 mph    
Max Gust Speed -    
Visibility 15.0 miles    
Events Rain    
Averages and records for this station are not official NWS values.
T = Trace of Precipitation, MM = Missing Value Source: Averaged Metar Reports

Daily Weather History Graph

Daily Weather History Graph

Search for Another Location

Airport:

Trip Planner

Search our weather history database for the weather conditions in past years. The results will help you decide how hot, cold, wet, or windy it might be!

Date:

Astronomy

Sep. 04, 2013 Rise Set
Actual Time 6:59 AM CDT 8:16 PM CDT
Civil Twilight 6:26 AM CDT 8:49 PM CDT
Nautical Twilight 5:46 AM CDT 9:29 PM CDT
Astronomical Twilight 5:02 AM CDT 10:13 PM CDT
Moon 6:14 AM CDT (9/4) 7:33 PM CDT (9/4)
Length of Visible Light 14h 23m
Length of Day
13h 16m
Waning Crescent, 1% of the Moon is Illuminated
Sep 4
Waning Crescent
Sep 5
New
Sep 12
First Quarter
Sep 19
Full
Sep 26
Last Quarter

Hourly Weather History & Observations

Time (CDT) Temp. Windchill Dew Point Humidity Pressure Visibility Wind Dir Wind Speed Gust Speed Precip Events Conditions
12:00 AM 53.6 °F - 48.2 °F 82% 30.18 in 15.0 mi NE 6.9 mph - N/A   Scattered Clouds
1:00 AM 51 °F - 47 °F 83% 30.19 in 15 mi NE 8.1 mph - -   Scattered Clouds
1:00 AM 51.8 °F - 48.2 °F 88% 30.19 in 15.0 mi ENE 6.9 mph - N/A   Partly Cloudy
2:00 AM 50.0 °F - 46.4 °F 87% 30.20 in 15.0 mi ENE 8.1 mph - N/A   Clear
3:00 AM 48.2 °F - 44.6 °F 87% 30.22 in 15.0 mi ENE 5.8 mph - N/A   Partly Cloudy
4:00 AM 46.4 °F 43.5 °F 44.6 °F 93% 30.21 in 15.0 mi ENE 5.8 mph - N/A   Partly Cloudy
5:00 AM 46.4 °F 45.2 °F 42.8 °F 87% 30.22 in 15.0 mi NNE 3.5 mph - N/A   Partly Cloudy
6:00 AM 44.6 °F - 42.8 °F 93% 30.23 in 15.0 mi NNE 2.3 mph - N/A   Partly Cloudy
7:00 AM 45 °F - 43 °F 89% 30.25 in 15 mi NNE 4.6 mph - -   Scattered Clouds
7:00 AM 44.6 °F 41.4 °F 42.8 °F 93% 30.25 in 15.0 mi NNE 5.8 mph - N/A   Mostly Cloudy
8:00 AM 48.2 °F - 44.6 °F 87% 30.26 in 15.0 mi Variable 2.3 mph - N/A   Overcast
9:00 AM 51.8 °F - 46.4 °F 82% 30.27 in 15.0 mi East 5.8 mph - N/A   Mostly Cloudy
10:00 AM 53.6 °F - 48.2 °F 82% 30.29 in 15.0 mi SE 3.5 mph - N/A   Mostly Cloudy
11:00 AM 57.2 °F - 46.4 °F 67% 30.29 in 15.0 mi ESE 6.9 mph - N/A   Mostly Cloudy
12:00 PM 59.0 °F - 44.6 °F 59% 30.29 in 15.0 mi SE 5.8 mph - N/A   Mostly Cloudy
1:00 PM 60 °F - 44 °F 45% 30.29 in 15 mi SSE 4.6 mph - -   Partly Cloudy
1:00 PM 60.8 °F - 44.6 °F 55% 30.28 in 15.0 mi SSE 5.8 mph - N/A   Mostly Cloudy
2:00 PM 60.8 °F - 42.8 °F 52% 30.28 in 15.0 mi East 3.5 mph - N/A   Mostly Cloudy
3:00 PM 64.4 °F - 39.2 °F 40% 30.26 in 15.0 mi Calm Calm - N/A   Mostly Cloudy
4:00 PM 66.2 °F - 42.8 °F 43% 30.25 in 15.0 mi SE 3.5 mph - N/A   Mostly Cloudy
5:00 PM 66.2 °F - 39.2 °F 37% 30.23 in 15.0 mi SE 6.9 mph - N/A   Scattered Clouds
6:00 PM 66.2 °F - 42.8 °F 43% 30.22 in 15.0 mi SSE 5.8 mph - N/A   Mostly Cloudy
7:00 PM 64 °F - 44 °F 38% 30.22 in 15 mi East 3.5 mph - -   Mostly Cloudy
7:00 PM 64.4 °F - 44.6 °F 49% 30.22 in 15.0 mi East 3.5 mph - N/A   Mostly Cloudy
7:22 PM 64.4 °F - 44.6 °F 49% 30.21 in 15.0 mi ESE 4.6 mph - N/A Rain Light Rain Showers
7:39 PM 62.6 °F - 46.4 °F 55% 30.21 in 15.0 mi SE 4.6 mph - N/A   Mostly Cloudy
8:00 PM 62.6 °F - 44.6 °F 52% 30.21 in 15.0 mi ESE 4.6 mph - N/A   Mostly Cloudy
9:00 PM 60.8 °F - 48.2 °F 63% 30.21 in 15.0 mi East 4.6 mph - N/A   Mostly Cloudy
10:00 PM 59.0 °F - 48.2 °F 67% 30.21 in 15.0 mi East 3.5 mph - N/A   Overcast
11:00 PM 59.0 °F - 48.2 °F 67% 30.21 in 15.0 mi SE 4.6 mph - N/A   Mostly Cloudy